Flag for Norway Weather past 2 weeks in Longyearbyen, Svalbard, Norway

Now
36 °F

Partly sunny.


Feels Like: 31 °F
Forecast: 29 / 41 °F
Wind: 6 mph from Northwest

Location: Svalbard Lufthavn

Current Time: Sep 2, 2015 at 5:57:10 PM

Latest Report: Sep 2, 2015 at 4:50 PM


Visibility: N/A

Pressure: 30.07 "Hg

Humidity: 60%

Dew point: 23 °F

Location of LongyearbyenLocation

Historic Weather in Longyearbyen — Graph

°F

Longyearbyen temperature yesterday

Maximum temperature yesterday: 37 °F (at 10:50 AM)
Minimum temperature yesterday: 32 °F (at 3:50 AM)
Average temperature yesterday: 35 °F

Past Weeks' High & Low Weather Summary

 TemperatureHumidityPressure
High50 °F (Aug 19, 5:50 AM)100% (Aug 24, 4:50 AM)30.33 "Hg (Aug 24, 4:50 AM)
Low30 °F (Sep 2, 12:50 AM)56% (Sep 1, 5:50 PM)29.71 "Hg (Aug 31, 12:50 AM)
Average41 °F79%30.00 "Hg
* Reported Aug 18 3:50 PM — Sep 2 3:50 PM, Longyearbyen, Weather by CustomWeather, © 2015

Note: Actual official high and low records may vary slightly from our data, if they occured in-between our weather recording intervals... More about our weather records

Advertising

Longyearbyen weather history for previous 24 hours

 ConditionsComfort  
Time TempWeatherWind HumidityBarometerVisibility
3:50 PM
Wed, Sep 2
36 °FPartly sunny.7 mph56%30.07 "HgN/A
2:50 PM36 °FPartly sunny.8 mph60%30.09 "HgN/A
1:50 PM34 °FPartly sunny.6 mph60%30.09 "HgN/A
12:50 PM34 °FPartly sunny.8 mph60%30.09 "HgN/A
11:50 AM34 °FPartly sunny.7 mph65%30.09 "HgN/A
11:20 AM34 °FPartly sunny.8 mph65%30.12 "HgN/A
9:50 AM34 °FPartly sunny.8 mph65%30.12 "HgN/A
8:50 AM34 °FPartly sunny.9 mph65%30.12 "HgN/A
7:50 AM34 °FPartly sunny.7 mph65%30.12 "HgN/A
6:50 AM34 °FPartly sunny.8 mph60%30.12 "HgN/A
5:50 AM34 °FPartly sunny.7 mph60%30.12 "HgN/A
4:50 AM34 °FPartly sunny.9 mph60%30.12 "HgN/A
3:50 AM34 °FPassing clouds.7 mph65%30.15 "HgN/A
2:50 AM32 °FPassing clouds.1 mph75%30.15 "HgN/A
1:50 AM32 °FPassing clouds.5 mph69%30.15 "HgN/A
12:50 AM30 °FPassing clouds.5 mph75%30.15 "HgN/A
10:50 PM
Tue, Sep 1
32 °FPassing clouds.6 mph69%30.12 "HgN/A
9:50 PM34 °FPassing clouds.5 mph65%30.12 "HgN/A
8:50 PM36 °FPassing clouds.13 mph60%30.12 "HgN/A
7:50 PM36 °FPassing clouds.16 mph65%30.12 "HgN/A
6:50 PM37 °FPassing clouds.13 mph56%30.09 "HgN/A
5:50 PM37 °FPassing clouds.8 mph56%30.09 "HgN/A
5:08 PM37 °FPassing clouds.6 mph60%30.09 "HgN/A
Weather by CustomWeather, © 2015

See weather overviewHow to use our weather pages